Location: Menands
(42.6920°N, 73.7246°W)
Time: 02:19:00
(UTC+00:00)

NOSS 3-4 (C) - Pass Details

Date: 18 February 2026
Orbit: 773 x 1438 km, 63.4° (Epoch: 26 December)

Event Time Altitude Azimuth Distance (km) Brightness Sun altitude
Rises 22:57:06 0° 323° (NW) 3,752 6.9 -5.6°
Reaches altitude 10° 22:59:33 10° 324° (NW) 2,886 6.3 -6.0°
Maximum altitude 23:06:31 89° 241° (WSW) 1,198 4.0 -7.3°
Drops below altitude 10° 23:14:41 10° 147° (SSE) 3,352 6.0 -8.8°
Sets 23:17:42 0° 147° (SSE) 4,390 6.6 -9.3°
